Pendleton, OR

9:02 AM PDT on April 30, 2017 (GMT -0700)
Eastern Oreg Regional At Pendleton

Weather History for KPDT - April, 2014

Change the Weather History Date:

Thursday, April 24, 2014

  Actual Average Record
Temperature  
Mean Temperature 55 °F 52 °F  
Max Temperature 63 °F 64 °F 91 °F (1977)
Min Temperature 46 °F 40 °F 21 °F (1924)
Degree Days  
Heating Degree Days 10 13  
Month to date heating degree days 327 358  
Since 1 July heating degree days 5193 4874  
Cooling Degree Days 0 0  
Month to date cooling degree days 0 0  
Year to date cooling degree days 0 0  
Growing Degree Days 4 (Base 50)    
Moisture  
Dew Point 42 °F    
Average Humidity 66    
Maximum Humidity 86    
Minimum Humidity 46    
Precipitation  
Precipitation 0.19 in 0.04 in 0.49 in (1974)
Month to date precipitation 1.02 0.95  
Year to date precipitation 5.64 4.81  
Snow  
Snow 0.00 in 0.00 in 0.00 in (2002)
Month to date snowfall 0.0 0.0  
Year to date snowfall 15.2 7.7  
Since 1 July snowfall 21.7 15.2  
Snow Depth 0.00 in    
Sea Level Pressure  
Sea Level Pressure 29.79 in    
Wind  
Wind Speed 11 mph (WSW)    
Max Wind Speed 29 mph    
Max Gust Speed 36 mph    
Visibility 10 miles    
Events Rain , Thunderstorm    
T = Trace of Precipitation, MM = Missing Value Source: NWS Daily Summary

Daily Weather History Graph

Daily Weather History Graph

Search for Another Location

Airport or City:

Trip Planner

Search our weather history database for the weather conditions in past years. The results will help you decide how hot, cold, wet, or windy it might be!

Date:

Astronomy

Apr. 24, 2014 Rise Set
Actual Time 5:53 AM PDT 7:53 PM PDT
Civil Twilight 5:21 AM PDT 8:25 PM PDT
Nautical Twilight 4:42 AM PDT 9:05 PM PDT
Astronomical Twilight 3:59 AM PDT 9:49 PM PDT
Moon 3:23 AM PDT (4/24) 3:00 PM PDT (4/24)
Length of Visible Light 15h 03m
Length of Day
13h 59m
Waning Crescent, 23% of the Moon is Illuminated
Apr 24
Waning Crescent
Apr 28
New
May 6
First Quarter
May 14
Full
May 21
Last Quarter

Hourly Weather History & Observations

Time (PDT) Temp. Dew Point Humidity Pressure Visibility Wind Dir Wind Speed Gust Speed Precip Events Conditions
12:53 AM 48.9 °F 42.1 °F 77% 29.78 in 10.0 mi SSE 9.2 mph - 0.03 in Rain Light Rain
1:53 AM 51.1 °F 42.1 °F 71% 29.76 in 10.0 mi SSW 13.8 mph - 0.00 in Rain Light Rain
2:53 AM 50.0 °F 44.1 °F 80% 29.74 in 10.0 mi SSW 5.8 mph - 0.01 in Rain Light Rain
3:53 AM 50.0 °F 43.0 °F 77% 29.74 in 10.0 mi SW 8.1 mph - 0.01 in Rain Light Rain
4:53 AM 50.0 °F 43.0 °F 77% 29.75 in 10.0 mi South 5.8 mph - 0.01 in Rain Light Rain
5:53 AM 50.0 °F 43.0 °F 77% 29.77 in 10.0 mi SSW 11.5 mph - 0.01 in Rain Light Rain
6:53 AM 48.0 °F 44.1 °F 86% 29.78 in 6.0 mi South 9.2 mph - 0.07 in Rain Light Rain
7:53 AM 48.9 °F 44.1 °F 83% 29.77 in 10.0 mi SSE 10.4 mph - 0.00 in Rain Light Rain
8:53 AM 52.0 °F 45.0 °F 77% 29.77 in 10.0 mi SSW 12.7 mph - 0.00 in   Clear
9:53 AM 57.0 °F 45.0 °F 64% 29.78 in 10.0 mi SSW 15.0 mph 20.7 mph N/A   Mostly Cloudy
10:36 AM 55.0 °F 42.1 °F 62% 29.79 in 10.0 mi West 23.0 mph 32.2 mph 0.00 in Rain Light Rain
10:50 AM 53.6 °F 44.6 °F 72% 29.81 in 10.0 mi WNW 17.3 mph - 0.00 in   Mostly Cloudy
10:53 AM 54.0 °F 44.1 °F 69% 29.80 in 10.0 mi West 18.4 mph - 0.00 in   Mostly Cloudy
11:07 AM 51.1 °F 44.1 °F 77% 29.81 in 7.0 mi WNW 11.5 mph - 0.01 in Rain , Thunderstorm Light Rain
11:30 AM 53.1 °F 44.1 °F 71% 29.82 in 10.0 mi West 9.2 mph - 0.01 in   Mostly Cloudy
11:53 AM 57.0 °F 46.0 °F 67% 29.79 in 10.0 mi North - - 0.01 in   Mostly Cloudy
12:53 PM 59.0 °F 39.0 °F 48% 29.78 in 10.0 mi West 16.1 mph - N/A   Scattered Clouds
1:53 PM 60.1 °F 39.9 °F 47% 29.79 in 10.0 mi West 18.4 mph - N/A   Overcast
2:53 PM 57.0 °F 39.9 °F 53% 29.81 in 10.0 mi SW 11.5 mph - 0.00 in   Mostly Cloudy
3:53 PM 54.0 °F 43.0 °F 66% 29.81 in 8.0 mi SSW 8.1 mph - 0.05 in Rain Light Rain
4:53 PM 57.0 °F 44.1 °F 62% 29.80 in 10.0 mi WNW 12.7 mph - 0.02 in   Scattered Clouds
5:53 PM 59.0 °F 39.0 °F 48% 29.80 in 10.0 mi WNW 13.8 mph - N/A   Clear
6:53 PM 53.1 °F 39.9 °F 61% 29.81 in 10.0 mi WNW 6.9 mph - N/A   Clear
7:53 PM 50.0 °F 39.9 °F 68% 29.82 in 10.0 mi WNW 6.9 mph - N/A   Clear
8:53 PM 48.0 °F 39.0 °F 71% 29.83 in 10.0 mi West 9.2 mph - N/A   Mostly Cloudy
9:53 PM 48.0 °F 37.9 °F 68% 29.83 in 10.0 mi West 5.8 mph - N/A   Overcast
10:53 PM 46.9 °F 37.0 °F 68% 29.84 in 10.0 mi West 11.5 mph - 0.00 in Rain Light Rain
11:53 PM 46.9 °F 37.9 °F 71% 29.85 in 10.0 mi WSW 10.4 mph - 0.00 in Rain Light Rain